Location: Moscow
(38.8570°N, 84.2291°W)
Time: 15:12:08
(UTC+00:00)

SL-4 R/B - Pass Details

Date: 15 November 2025
Orbit: 386 x 526 km, 51.6° (Epoch: 06 December)

Event Time Altitude Azimuth Distance (km) Brightness Sun altitude
Rises 23:06:12 0° 303° (WNW) 2,379 5.9 -8.7°
Reaches altitude 10° 23:08:19 10° 296° (WNW) 1,535 5.0 -9.1°
Maximum altitude 23:11:37 44° 223° (SW) 632 2.8 -9.7°
Drops below altitude 10° 23:15:04 10° 151° (SSE) 1,608 4.3 -10.4°
Sets 23:17:20 0° 145° (SE) 2,509 5.2 -10.8°
